period_start,C,m1,H,J0,J1,J2,J3,J4,J5,JA,JB,JC,JD,JJ,JK,JN,#
2014-08-12 00:04:14,0.02,3.55,0.00,28.57,33.10,35.29,9.35,43.08,1009.17,2010.99,2183.00,2432.06,2562.07,499.66,483.71,23.83,0000 0000 0000 0000 000000
2014-08-12 00:09:15,0.02,3.55,0.00,28.55,33.10,35.29,9.32,43.24,1008.90,2010.99,2182.68,2431.99,2561.98,499.99,483.82,23.87,0000 0000 0000 0000 000000
2014-08-12 00:14:17,0.06,3.56,0.00,28.53,33.07,35.28,9.45,43.39,1008.99,2011.00,2182.05,2431.69,2561.46,500.68,484.38,23.91,0000 0000 0000 0000 000000
2014-08-12 00:19:18,0.03,3.56,0.00,28.55,33.07,35.26,9.34,43.02,1008.80,2011.00,2181.92,2431.04,2561.01,499.83,483.68,23.95,0000 0000 0000 0000 000000
2014-08-12 00:24:19,0.03,3.56,0.00,28.55,33.05,35.24,9.26,43.23,1008.80,2011.01,2181.29,2430.99,2560.91,499.84,483.88,23.99,0000 0000 0000 0000 000000
2014-08-12 00:29:20,0.04,3.56,0.00,28.53,33.05,35.23,9.39,43.13,1008.78,2011.04,2181.00,2430.80,2560.33,500.60,484.35,24.04,0000 0000 0000 0000 000000
2014-08-12 00:34:22,0.05,3.56,0.00,28.54,33.03,35.22,9.36,43.17,1008.77,2011.15,2180.85,2430.19,2560.02,499.96,483.59,24.08,0000 0000 0000 0000 000000
2014-08-12 00:39:23,0.07,3.57,0.00,28.57,33.02,35.21,9.38,42.99,1008.60,2011.39,2180.14,2430.00,2559.94,500.04,483.83,24.12,0000 0000 0000 0000 000000
2014-08-12 00:44:24,0.06,3.57,0.00,28.55,33.02,35.20,9.38,43.10,1008.48,2011.51,2179.96,2429.86,2559.31,499.98,483.72,24.16,0000 0000 0000 0000 000000
2014-08-12 00:49:25,0.09,3.57,0.00,28.55,33.00,35.19,9.30,42.90,1008.22,2011.77,2179.37,2429.14,2559.01,499.75,483.26,24.20,0000 0000 0000 0000 000000
2014-08-12 00:54:27,0.01,3.57,0.00,28.55,33.00,35.19,9.33,43.07,1007.84,2011.86,2179.02,2429.00,2559.00,500.06,483.43,24.25,0000 0000 0000 0000 000000
2014-08-12 00:59:28,0.01,3.57,0.00,28.57,33.00,35.19,9.29,43.06,1007.85,2011.91,2178.99,2428.93,2558.85,499.66,482.99,24.29,0000 0000 0000 0000 000000
2014-08-12 01:04:29,0.09,3.58,0.00,28.57,33.00,35.19,9.32,43.05,1007.89,2011.90,2178.34,2428.16,2558.12,499.91,483.44,24.33,0000 0000 0000 0000 000000
2014-08-12 01:09:30,0.01,3.58,0.00,28.58,32.99,35.19,9.39,43.04,1007.84,2011.94,2177.98,2428.00,2558.00,499.96,483.36,24.37,0000 0000 0000 0000 000000
2014-08-12 01:14:32,0.05,3.58,0.00,28.60,32.97,35.19,9.34,43.24,1007.82,2011.98,2177.48,2427.88,2557.72,499.77,483.09,24.41,0000 0000 0000 0000 000000
2014-08-12 01:19:33,0.06,3.58,0.00,28.60,32.97,35.18,9.29,43.41,1007.38,2011.99,2177.03,2427.26,2557.14,499.42,482.55,24.45,0000 0000 0000 0000 000000
2014-08-12 01:24:34,0.01,3.58,0.00,28.60,32.97,35.18,9.38,43.32,1007.29,2011.99,2176.91,2426.99,2556.98,500.23,483.19,24.50,0000 0000 0000 0000 000000
2014-08-12 01:29:35,0.08,3.59,0.00,28.62,32.97,35.18,9.37,43.35,1007.15,2011.99,2176.30,2426.55,2556.40,499.58,482.68,24.54,0000 0000 0000 0000 000000
2014-08-12 01:34:36,0.02,3.59,0.00,28.63,32.97,35.19,9.28,43.39,1007.34,2011.99,2176.00,2426.03,2556.01,499.77,482.87,24.58,0000 0000 0000 0000 000000
2014-08-12 01:39:37,0.02,3.59,0.00,28.62,32.97,35.18,9.42,43.20,1007.21,2011.99,2175.76,2425.94,2555.88,500.11,483.06,24.62,0000 0000 0000 0000 000000
2014-08-12 01:44:38,0.08,3.59,0.00,28.61,32.97,35.18,9.35,43.33,1006.86,2011.99,2175.08,2425.24,2555.13,499.75,482.50,24.66,0000 0000 0000 0000 000000
2014-08-12 01:49:39,0.01,3.59,0.00,28.60,32.97,35.17,9.28,43.38,1006.81,2011.99,2174.99,2424.97,2554.93,500.02,482.76,24.71,0000 0000 0000 0000 000000
2014-08-12 01:54:40,0.09,3.60,0.00,28.63,32.97,35.18,9.38,43.12,1006.74,2011.99,2174.61,2424.27,2554.15,500.05,482.75,24.75,0000 0000 0000 0000 000000
2014-08-12 01:59:42,0.02,3.60,0.00,28.68,32.97,35.18,9.32,43.08,1006.83,2011.99,2174.05,2424.00,2553.97,499.99,482.54,24.79,0000 0000 0000 0000 000000
2014-08-12 02:04:43,0.05,3.60,0.00,28.70,32.97,35.18,9.31,43.01,1006.85,2011.99,2173.94,2423.66,2553.49,500.41,482.90,24.83,0000 0000 0000 0000 000000
2014-08-12 02:09:44,0.06,3.60,0.00,28.72,32.97,35.18,9.33,42.95,1006.86,2011.99,2173.29,2423.04,2553.01,500.12,482.64,24.87,0000 0000 0000 0000 000000
2014-08-12 02:14:46,0.03,3.60,0.00,28.76,32.97,35.17,9.36,43.03,1006.87,2011.99,2173.01,2422.83,2552.68,500.08,482.65,24.92,0000 0000 0000 0000 000000
2014-08-12 02:19:47,0.05,3.61,0.00,28.81,32.97,35.18,9.41,43.08,1006.87,2011.99,2172.89,2422.12,2552.04,500.26,482.83,24.96,0000 0000 0000 0000 000000
2014-08-12 02:24:49,0.03,3.61,0.00,28.85,32.97,35.18,9.32,43.14,1006.85,2011.99,2172.20,2421.97,2551.91,499.91,482.19,25.00,0000 0000 0000 0000 000000
2014-08-12 02:29:50,0.06,3.61,0.00,28.88,32.98,35.19,9.36,42.99,1006.85,2011.99,2171.99,2421.27,2551.13,500.31,482.67,25.04,0000 0000 0000 0000 000000
2014-08-12 02:34:51,0.03,3.61,0.00,28.92,33.00,35.20,9.23,43.16,1006.78,2011.99,2171.51,2420.99,2550.92,499.26,481.60,25.08,0000 0000 0000 0000 000000
2014-08-12 02:39:51,0.05,3.61,0.00,28.93,33.00,35.21,9.34,43.33,1006.54,2011.99,2171.01,2420.58,2550.24,499.97,482.08,25.12,0000 0000 0000 0000 000000
2014-08-12 02:44:53,0.02,3.62,0.00,28.96,33.01,35.24,9.32,43.23,1006.44,2011.99,2170.88,2420.02,2550.00,500.17,482.13,25.17,0000 0000 0000 0000 000000
2014-08-12 02:49:54,0.07,3.62,0.00,28.94,33.02,35.25,9.32,43.48,1006.37,2011.99,2170.12,2419.70,2549.46,500.29,482.18,25.21,0000 0000 0000 0000 000000
2014-08-12 02:54:55,0.04,3.62,0.00,28.91,33.03,35.28,9.22,43.27,1006.36,2011.98,2169.75,2419.02,2548.99,499.66,481.65,25.25,0000 0000 0000 0000 000000
2014-08-12 02:59:56,0.07,3.62,0.00,28.87,33.05,35.29,9.25,43.42,1006.35,2011.98,2169.04,2418.60,2548.29,499.79,481.79,25.29,0000 0000 0000 0000 000000
2014-08-12 03:04:58,0.05,3.63,0.00,28.83,33.05,35.30,9.33,43.32,1006.23,2011.97,2168.36,2418.00,2547.83,499.98,482.13,25.33,0000 0000 0000 0000 000000
2014-08-12 03:09:59,0.07,3.63,0.00,28.82,33.05,35.30,9.34,43.32,1005.91,2011.98,2167.91,2417.30,2547.05,499.68,481.72,25.38,0000 0000 0000 0000 000000
2014-08-12 03:15:00,0.06,3.63,0.00,28.81,33.05,35.31,9.38,43.37,1005.87,2011.93,2167.11,2416.85,2546.43,500.17,482.19,25.42,0000 0000 0000 0000 000000
2014-08-12 03:20:01,0.06,3.64,0.00,28.81,33.06,35.29,9.33,43.23,1005.87,2011.96,2166.62,2416.11,2545.98,499.72,481.72,25.46,0000 0000 0000 0000 000000
2014-08-12 03:25:02,0.05,3.64,0.00,28.84,33.06,35.29,9.34,43.67,1005.57,2011.98,2166.01,2415.83,2545.33,500.23,482.02,25.50,0000 0000 0000 0000 000000
2014-08-12 03:30:03,0.08,3.64,0.00,28.84,33.07,35.28,9.34,43.25,1005.40,2011.98,2165.31,2415.06,2544.77,499.87,481.45,25.54,0000 0000 0000 0000 000000
2014-08-12 03:35:05,0.07,3.64,0.00,28.84,33.07,35.28,9.34,43.48,1005.39,2011.95,2164.73,2414.41,2544.04,500.64,482.29,25.59,0000 0000 0000 0000 000000
2014-08-12 03:40:06,0.04,3.65,0.00,28.86,33.07,35.28,9.34,43.34,1005.37,2011.94,2164.03,2413.99,2543.53,499.87,481.60,25.63,0000 0000 0000 0000 000000
2014-08-12 03:45:07,0.07,3.65,0.00,28.88,33.07,35.28,9.32,43.64,1005.30,2011.95,2163.67,2413.26,2543.00,500.22,481.73,25.67,0000 0000 0000 0000 000000
2014-08-12 03:50:08,0.04,3.65,0.00,28.91,33.07,35.27,9.31,43.40,1005.33,2011.87,2163.03,2412.90,2542.29,500.18,481.63,25.71,0000 0000 0000 0000 000000
2014-08-12 03:55:09,0.05,3.65,0.00,28.98,33.09,35.27,9.39,43.40,1005.10,2011.70,2162.48,2412.16,2541.83,500.38,481.67,25.75,0000 0000 0000 0000 000000
2014-08-12 04:00:11,0.04,3.66,0.00,29.02,33.10,35.28,9.25,43.48,1004.97,2011.61,2161.96,2411.78,2541.06,499.69,480.98,25.79,0000 0000 0000 0000 000000
2014-08-12 04:05:12,0.06,3.66,0.00,29.04,33.10,35.30,9.31,43.38,1005.01,2011.40,2161.12,2411.05,2540.51,500.00,481.27,25.84,0000 0000 0000 0000 000000
2014-08-12 04:10:13,0.05,3.66,0.00,29.10,33.12,35.31,9.28,43.33,1004.92,2011.25,2160.68,2410.58,2539.99,500.19,481.28,25.88,0000 0000 0000 0000 000000
2014-08-12 04:15:14,0.04,3.66,0.00,29.16,33.13,35.32,9.27,43.08,1004.91,2011.15,2160.00,2410.01,2539.27,499.96,480.95,25.92,0000 0000 0000 0000 000000
2014-08-12 04:20:15,0.07,3.66,0.00,29.21,33.15,35.34,9.22,43.20,1004.91,2011.05,2159.34,2409.28,2538.80,499.69,480.53,25.96,0000 0000 0000 0000 000000
2014-08-12 04:25:16,0.04,3.67,0.00,29.25,33.17,35.35,9.25,43.03,1004.91,2011.02,2158.78,2408.88,2538.04,499.80,480.53,26.00,0000 0000 0000 0000 000000
2014-08-12 04:30:18,0.08,3.67,0.00,29.30,33.19,35.38,9.24,43.03,1004.91,2011.00,2158.05,2408.09,2537.38,499.62,480.31,26.05,0000 0000 0000 0000 000000
2014-08-12 04:35:18,0.10,3.67,0.00,29.34,33.21,35.40,9.30,43.20,1004.90,2011.00,2157.26,2407.41,2536.61,499.99,480.56,26.09,0000 0000 0000 0000 000000
2014-08-12 04:40:20,0.07,3.68,0.00,29.37,33.23,35.42,9.32,43.27,1004.82,2011.00,2156.44,2406.73,2535.88,500.26,480.75,26.13,0000 0000 0000 0000 000000
2014-08-12 04:45:21,0.08,3.68,0.00,29.40,33.26,35.44,9.26,43.30,1004.44,2010.98,2155.54,2405.97,2535.03,500.12,480.37,26.17,0000 0000 0000 0000 000000
2014-08-12 04:50:22,0.10,3.68,0.00,29.42,33.28,35.48,9.25,43.34,1004.42,2010.96,2154.66,2405.11,2534.17,500.34,480.63,26.21,0000 0000 0000 0000 000000
2014-08-12 04:55:24,0.09,3.69,0.00,29.45,33.31,35.51,9.28,43.26,1004.42,2010.90,2153.76,2404.40,2533.36,500.02,480.22,26.26,0000 0000 0000 0000 000000
2014-08-12 05:00:25,0.04,3.69,0.00,29.45,33.33,35.53,9.23,43.31,1004.42,2010.60,2152.84,2403.61,2532.48,499.39,479.71,26.30,0000 0000 0000 0000 000000
2014-08-12 05:05:26,0.06,3.69,0.00,29.46,33.36,35.56,9.34,43.14,1004.40,2010.43,2151.88,2402.83,2531.66,500.33,480.52,26.34,0000 0000 0000 0000 000000
2014-08-12 05:10:28,0.05,3.70,0.00,29.51,33.38,35.59,9.26,43.24,1004.38,2010.14,2151.01,2401.98,2530.77,500.23,480.33,26.38,0000 0000 0000 0000 000000
2014-08-12 05:15:29,0.08,3.70,0.00,29.55,33.41,35.61,9.22,42.93,1004.41,2010.01,2150.10,2401.13,2529.95,499.91,480.12,26.42,0000 0000 0000 0000 000000
2014-08-12 05:20:29,0.10,3.70,0.00,29.60,33.43,35.64,9.23,43.13,1004.41,2010.00,2149.17,2400.40,2529.07,499.90,479.93,26.47,0000 0000 0000 0000 000000
2014-08-12 05:25:31,0.10,3.71,0.00,29.62,33.46,35.66,9.35,43.29,1004.36,2010.00,2148.25,2399.61,2528.17,500.34,480.38,26.51,0000 0000 0000 0000 000000
2014-08-12 05:30:32,0.10,3.71,0.00,29.63,33.49,35.69,9.24,43.09,1004.08,2010.00,2147.41,2398.73,2527.29,499.98,479.80,26.55,0000 0000 0000 0000 000000
2014-08-12 05:35:33,0.09,3.72,0.00,29.64,33.51,35.71,9.28,43.16,1004.00,2009.96,2146.39,2397.87,2526.34,500.09,479.66,26.59,0000 0000 0000 0000 000000
2014-08-12 05:40:34,0.09,3.72,0.00,29.58,33.54,35.76,9.30,43.23,1003.92,2009.92,2145.57,2397.02,2525.43,499.90,479.64,26.63,0000 0000 0000 0000 000000
2014-08-12 05:45:36,0.08,3.72,0.00,29.50,33.55,35.80,9.15,43.06,1003.92,2009.73,2144.60,2396.14,2524.59,499.65,479.63,26.67,0000 0000 0000 0000 000000
2014-08-12 05:50:37,0.05,3.73,0.00,29.40,33.57,35.82,9.34,43.01,1003.88,2009.38,2143.61,2395.36,2523.72,500.21,480.30,26.72,0000 0000 0000 0000 000000
2014-08-12 05:55:38,0.07,3.73,0.00,29.32,33.58,35.83,9.26,42.94,1003.86,2009.22,2142.64,2394.67,2522.90,499.81,480.11,26.76,0000 0000 0000 0000 000000
2014-08-12 06:00:38,0.09,3.73,0.00,29.23,33.59,35.82,9.26,43.00,1003.74,2009.20,2141.65,2393.94,2522.04,500.45,480.72,26.80,0000 0000 0000 0000 000000
2014-08-12 06:05:40,0.13,3.74,0.00,29.14,33.59,35.83,9.26,42.83,1003.70,2009.38,2140.58,2393.09,2521.20,500.40,480.72,26.84,0000 0000 0000 0000 000000
2014-08-12 06:10:41,0.10,3.74,0.00,29.09,33.58,35.84,9.25,43.06,1003.51,2009.44,2139.69,2392.37,2520.44,499.46,479.81,26.88,0000 0000 0000 0000 000000
2014-08-12 06:15:42,0.08,3.75,0.00,29.05,33.57,35.84,9.31,43.10,1003.43,2009.43,2138.80,2391.63,2519.65,500.20,480.69,26.93,0000 0000 0000 0000 000000
2014-08-12 06:20:43,0.08,3.75,0.00,29.01,33.56,35.80,9.33,42.98,1003.43,2009.49,2137.88,2390.92,2518.89,499.98,480.50,26.97,0000 0000 0000 0000 000000
2014-08-12 06:25:44,0.14,3.76,0.00,28.98,33.55,35.75,9.37,43.12,1003.43,2009.71,2136.92,2390.08,2518.04,500.13,480.57,27.01,0000 0000 0000 0000 000000
2014-08-12 06:30:45,0.11,3.76,0.00,28.97,33.52,35.73,9.28,42.83,1003.43,2009.80,2135.94,2389.28,2517.15,499.98,480.50,27.05,0000 0000 0000 0000 000000
2014-08-12 06:35:47,0.10,3.76,0.00,28.96,33.51,35.69,9.36,42.87,1003.43,2009.96,2135.05,2388.66,2516.48,499.99,480.71,27.09,0000 0000 0000 0000 000000
2014-08-12 06:40:48,0.08,3.77,0.00,28.97,33.50,35.65,9.31,42.90,1003.43,2009.98,2134.18,2387.91,2515.71,500.14,480.66,27.13,0000 0000 0000 0000 000000
2014-08-12 06:45:49,0.09,3.77,0.00,28.96,33.48,35.63,9.26,42.82,1003.43,2009.98,2133.41,2387.06,2514.89,499.76,480.25,27.18,0000 0000 0000 0000 000000
2014-08-12 06:50:50,0.10,3.78,0.00,28.96,33.46,35.61,9.35,42.77,1003.41,2009.99,2132.51,2386.27,2514.05,500.23,480.96,27.22,0000 0000 0000 0000 000000
2014-08-12 06:55:52,0.08,3.78,0.00,28.93,33.45,35.59,9.29,42.63,1003.26,2009.99,2131.75,2385.63,2513.29,499.77,480.25,27.26,0000 0000 0000 0000 000000
2014-08-12 07:00:53,0.07,3.78,0.00,28.98,33.43,35.55,9.29,42.53,1003.01,2009.99,2130.88,2384.94,2512.50,499.67,480.08,27.30,0000 0000 0000 0000 000000
2014-08-12 07:05:54,0.10,3.79,0.00,29.03,33.42,35.52,9.28,42.50,1003.02,2009.99,2129.86,2384.07,2511.71,499.81,480.21,27.34,0000 0000 0000 0000 000000
2014-08-12 07:10:55,0.09,3.79,0.00,29.06,33.41,35.51,9.21,42.59,1002.95,2009.99,2129.03,2383.19,2510.86,499.80,480.00,27.39,0000 0000 0000 0000 000000
2014-08-12 07:15:56,0.11,3.80,0.00,29.12,33.40,35.50,9.27,42.66,1002.94,2010.01,2128.14,2382.37,2509.96,499.92,480.03,27.43,0000 0000 0000 0000 000000
2014-08-12 07:20:58,0.10,3.80,0.00,29.17,33.40,35.50,9.36,42.64,1002.94,2010.01,2127.23,2381.55,2509.05,500.49,480.67,27.47,0000 0000 0000 0000 000000
2014-08-12 07:25:59,0.09,3.81,0.00,29.21,33.40,35.50,9.24,42.66,1002.94,2010.01,2126.37,2380.74,2508.19,499.70,479.58,27.51,0000 0000 0000 0000 000000
2014-08-12 07:31:00,0.10,3.81,0.00,29.26,33.40,35.52,9.29,42.58,1002.93,2010.01,2125.56,2379.87,2507.38,500.13,479.97,27.55,0000 0000 0000 0000 000000
2014-08-12 07:36:01,0.11,3.81,0.00,29.30,33.41,35.52,9.26,42.41,1002.94,2010.01,2124.45,2379.01,2506.45,499.91,479.72,27.60,0000 0000 0000 0000 000000
2014-08-12 07:41:03,0.11,3.82,0.00,29.36,33.42,35.53,9.37,42.46,1002.95,2010.00,2123.48,2378.12,2505.50,500.28,479.90,27.64,0000 0000 0000 0000 000000
2014-08-12 07:46:04,0.10,3.82,0.00,29.41,33.43,35.54,9.23,42.39,1002.97,2010.00,2122.56,2377.20,2504.60,499.68,479.34,27.68,0000 0000 0000 0000 000000
2014-08-12 07:51:05,0.10,3.83,0.00,29.44,33.45,35.55,9.23,42.45,1002.97,2010.00,2121.73,2376.25,2503.66,500.00,479.54,27.72,0000 0000 0000 0000 000000
2014-08-12 07:56:06,0.12,3.83,0.00,29.46,33.46,35.58,9.25,42.58,1002.97,2010.00,2120.64,2375.37,2502.66,500.18,479.61,27.76,0000 0000 0000 0000 000000
2014-08-12 08:01:08,0.09,3.84,0.00,29.51,33.47,35.60,9.22,42.66,1002.96,2010.00,2119.73,2374.46,2501.76,499.77,479.27,27.81,0000 0000 0000 0000 000000
2014-08-12 08:06:09,0.11,3.84,0.00,29.54,33.50,35.63,9.33,42.59,1002.97,2010.00,2118.68,2373.60,2500.79,500.34,479.87,27.85,0000 0000 0000 0000 000000
2014-08-12 08:11:10,0.11,3.85,0.00,29.59,33.51,35.65,9.29,42.61,1003.05,2010.00,2117.67,2372.70,2499.82,500.18,479.58,27.89,0000 0000 0000 0000 000000
2014-08-12 08:16:11,0.11,3.85,0.00,29.62,33.54,35.68,9.29,42.61,1003.01,2009.99,2116.69,2371.67,2498.82,500.24,479.54,27.93,0000 0000 0000 0000 000000
2014-08-12 08:21:13,0.11,3.86,0.00,29.64,33.56,35.69,9.20,42.17,1003.13,2009.98,2115.63,2370.74,2497.80,499.84,479.19,27.97,0000 0000 0000 0000 000000
2014-08-12 08:26:14,0.11,3.86,0.00,29.68,33.58,35.72,9.25,42.52,1003.20,2009.94,2114.54,2369.80,2496.81,500.34,479.77,28.01,0000 0000 0000 0000 000000
2014-08-12 08:31:15,0.08,3.87,0.00,29.71,33.61,35.74,9.20,42.08,1003.07,2009.80,2113.43,2368.87,2495.84,499.98,479.14,28.06,0000 0000 0000 0000 000000
2014-08-12 08:36:16,0.06,3.87,0.00,29.74,33.63,35.78,9.16,42.39,1002.97,2009.45,2112.38,2367.87,2494.91,499.69,478.83,28.10,0000 0000 0000 0000 000000
2014-08-12 08:41:17,0.07,3.87,0.00,29.75,33.66,35.80,9.24,42.39,1002.94,2009.21,2111.34,2367.02,2493.98,500.04,479.26,28.14,0000 0000 0000 0000 000000
2014-08-12 08:46:18,0.09,3.88,0.00,29.80,33.68,35.83,9.35,42.23,1002.94,2009.08,2110.56,2366.13,2492.94,500.65,479.60,28.18,0000 0000 0000 0000 000000
2014-08-12 08:51:19,0.11,3.88,0.00,29.82,33.71,35.87,9.16,42.18,1002.94,2009.01,2109.57,2365.07,2491.85,499.85,478.82,28.22,0000 0000 0000 0000 000000
2014-08-12 08:56:20,0.12,3.89,0.00,29.87,33.73,35.89,9.26,42.17,1002.94,2009.00,2108.47,2364.03,2490.81,499.72,478.75,28.27,0000 0000 0000 0000 000000
2014-08-12 09:01:21,0.11,3.89,0.00,29.90,33.76,35.92,9.19,42.08,1002.94,2008.99,2107.52,2363.11,2489.85,499.98,478.79,28.31,0000 0000 0000 0000 000000
2014-08-12 09:06:22,0.11,3.89,0.00,29.91,33.79,35.95,9.22,42.25,1002.94,2008.98,2106.57,2362.21,2488.86,500.23,479.14,28.35,0000 0000 0000 0000 000000
2014-08-12 09:11:23,0.11,3.90,0.00,29.95,33.81,35.98,9.25,42.52,1002.85,2008.89,2105.40,2361.25,2487.86,500.03,478.72,28.39,0000 0000 0000 0000 000000
2014-08-12 09:16:25,0.09,3.90,0.00,29.97,33.84,36.02,9.23,42.24,1002.62,2008.75,2104.33,2360.32,2486.88,500.25,478.78,28.43,0000 0000 0000 0000 000000
2014-08-12 09:21:26,0.05,3.91,0.00,30.01,33.87,36.04,9.21,42.35,1002.56,2008.27,2103.25,2359.35,2485.79,499.64,478.11,28.48,0000 0000 0000 0000 000000
2014-08-12 09:26:27,0.10,3.91,0.00,30.01,33.89,36.06,9.21,42.72,1002.57,2008.06,2102.18,2358.28,2484.72,499.53,478.23,28.52,0000 0000 0000 0000 000000
2014-08-12 09:31:29,0.12,3.91,0.00,30.06,33.92,36.09,9.29,42.73,1002.75,2008.02,2101.11,2357.30,2483.66,500.33,478.84,28.56,0000 0000 0000 0000 000000
2014-08-12 09:36:30,0.12,3.92,0.00,30.07,33.95,36.12,9.21,42.93,1002.75,2008.00,2099.96,2356.24,2482.55,499.79,478.33,28.60,0000 0000 0000 0000 000000
2014-08-12 09:41:30,0.12,3.92,0.00,30.09,33.97,36.15,9.30,42.88,1002.85,2008.00,2098.90,2355.24,2481.55,500.24,478.74,28.64,0000 0000 0000 0000 000000
2014-08-12 09:46:32,0.13,3.93,0.00,30.12,34.00,36.17,9.22,42.77,1002.93,2008.00,2097.80,2354.21,2480.45,499.87,478.48,28.69,0000 0000 0000 0000 000000
2014-08-12 09:51:34,0.12,3.94,0.00,30.14,34.03,36.19,9.28,42.83,1002.94,2007.95,2096.65,2353.15,2479.36,500.48,478.98,28.73,0000 0000 0000 0000 000000
2014-08-12 09:56:35,0.09,3.94,0.00,30.16,34.06,36.22,9.23,42.77,1002.94,2007.79,2095.57,2352.16,2478.30,500.08,478.45,28.77,0000 0000 0000 0000 000000
2014-08-12 10:01:36,0.05,3.94,0.00,30.19,34.08,36.25,9.21,42.79,1002.94,2007.30,2094.49,2351.13,2477.19,499.92,478.41,28.81,0000 0000 0000 0000 000000
2014-08-12 10:06:37,0.10,3.95,0.00,30.22,34.11,36.28,9.24,42.97,1002.95,2007.08,2093.38,2350.11,2476.13,500.25,478.47,28.85,0000 0000 0000 0000 000000
2014-08-12 10:11:39,0.11,3.95,0.00,30.23,34.14,36.30,9.24,42.96,1002.95,2007.02,2092.32,2349.11,2475.05,499.39,477.67,28.89,0000 0000 0000 0000 000000
2014-08-12 10:16:40,0.12,3.96,0.00,30.27,34.16,36.33,9.24,42.92,1002.97,2007.00,2091.13,2348.06,2473.93,499.76,478.04,28.94,0000 0000 0000 0000 000000
2014-08-12 10:21:40,0.13,3.96,0.00,30.30,34.19,36.35,9.25,42.98,1002.95,2007.00,2089.92,2347.04,2472.81,499.38,477.83,28.98,0000 0000 0000 0000 000000
2014-08-12 10:26:42,0.15,3.97,0.00,30.30,34.22,36.38,9.21,43.37,1002.96,2006.98,2088.62,2345.94,2471.67,499.99,478.12,29.02,0000 0000 0000 0000 000000
2014-08-12 10:31:43,0.14,3.97,0.00,30.32,34.24,36.40,9.19,43.05,1003.00,2006.92,2087.28,2344.82,2470.41,499.85,478.11,29.06,0000 0000 0000 0000 000000
2014-08-12 10:36:45,0.13,3.98,0.00,30.36,34.27,36.43,9.25,43.10,1003.32,2006.60,2085.56,2343.59,2468.91,500.53,478.79,29.10,0000 0000 0000 0000 000000
2014-08-12 10:41:46,0.14,3.98,0.00,30.38,34.30,36.45,9.25,43.17,1003.32,2006.14,2083.60,2342.09,2467.31,499.77,478.06,29.15,0000 0000 0000 0000 000000
2014-08-12 10:46:47,0.21,3.99,0.00,30.40,34.32,36.48,9.33,43.27,1003.34,2006.03,2081.40,2340.54,2465.52,500.48,478.49,29.19,0000 0000 0000 0000 000000
2014-08-12 10:51:48,0.26,4.00,0.00,30.41,34.35,36.51,9.18,43.38,1003.42,2006.00,2078.89,2338.79,2463.52,499.97,478.24,29.23,0000 0000 0000 0000 000000
2014-08-12 10:56:49,0.24,4.01,0.00,30.44,34.37,36.52,9.23,43.17,1003.43,2005.99,2076.25,2337.06,2461.47,499.92,478.13,29.27,0000 0000 0000 0000 000000
2014-08-12 11:01:50,0.22,4.02,0.00,30.45,34.39,36.54,9.25,43.20,1003.43,2005.98,2073.85,2335.49,2459.62,500.45,478.59,29.31,0000 0000 0000 0000 000000
2014-08-12 11:06:51,0.18,4.03,0.00,30.47,34.42,36.57,9.31,43.41,1003.44,2005.96,2071.83,2334.02,2457.96,500.20,478.39,29.36,0000 0000 0000 0000 000000
2014-08-12 11:11:53,0.18,4.04,0.00,30.50,34.44,36.60,9.15,42.90,1003.45,2005.87,2069.97,2332.65,2456.44,499.68,477.86,29.40,0000 0000 0000 0000 000000
2014-08-12 11:16:54,0.12,4.05,0.00,30.53,34.46,36.62,9.26,42.86,1003.48,2005.59,2068.05,2331.32,2454.82,500.01,478.22,29.44,0000 0000 0000 0000 000000
2014-08-12 11:21:55,0.15,4.05,0.00,30.56,34.49,36.65,9.19,43.14,1003.71,2005.18,2066.12,2329.84,2453.31,500.47,478.59,29.48,0000 0000 0000 0000 000000
2014-08-12 11:26:57,0.20,4.06,0.00,30.58,34.51,36.67,9.27,43.12,1003.86,2005.04,2064.05,2328.36,2451.63,500.10,478.38,29.52,0000 0000 0000 0000 000000
2014-08-12 11:31:58,0.24,4.07,0.00,30.60,34.54,36.69,9.20,43.31,1003.87,2005.00,2061.59,2326.71,2449.68,499.74,478.04,29.56,0000 0000 0000 0000 000000
2014-08-12 11:36:59,0.27,4.08,0.00,30.65,34.56,36.71,9.19,43.13,1003.89,2005.00,2058.86,2324.85,2447.60,499.74,477.76,29.61,0000 0000 0000 0000 000000
2014-08-12 11:42:00,0.30,4.09,0.00,30.70,34.58,36.73,9.19,43.36,1003.92,2004.99,2055.75,2322.84,2445.23,499.98,478.21,29.65,0000 0000 0000 0000 000000
2014-08-12 11:47:01,0.32,4.11,0.00,30.74,34.60,36.75,9.24,43.10,1003.92,2004.96,2052.39,2320.63,2442.67,500.19,478.18,29.69,0000 0000 0000 0000 000000
2014-08-12 11:52:02,0.33,4.12,0.00,30.78,34.62,36.78,9.19,43.16,1003.92,2004.87,2048.80,2318.38,2440.04,499.81,477.81,29.73,0000 0000 0000 0000 000000
2014-08-12 11:57:04,0.29,4.13,0.00,30.80,34.64,36.79,9.24,43.23,1003.93,2004.46,2045.33,2316.06,2437.26,500.06,477.93,29.77,0000 0000 0000 0000 000000
2014-08-12 12:02:05,0.28,4.15,0.00,30.81,34.66,36.81,9.19,43.18,1003.92,2004.23,2041.92,2313.87,2434.72,499.93,477.79,29.82,0000 0000 0000 0000 000000
2014-08-12 12:07:06,0.28,4.16,0.00,30.82,34.69,36.84,9.15,43.08,1003.92,2004.05,2038.82,2311.81,2432.32,499.52,477.41,29.86,0000 0000 0000 0000 000000
2014-08-12 12:12:07,0.34,4.17,0.00,30.81,34.71,36.86,9.24,43.33,1003.92,2004.00,2035.30,2309.55,2429.79,500.03,477.87,29.90,0000 0000 0000 0000 000000
2014-08-12 12:17:08,0.40,4.19,0.00,30.82,34.73,36.90,9.23,43.27,1003.92,2004.00,2031.25,2307.11,2426.86,499.96,477.82,29.94,0000 0000 0000 0000 000000
2014-08-12 12:22:09,0.45,4.20,0.00,30.81,34.75,36.91,9.24,43.17,1003.92,2004.00,2026.46,2304.25,2423.47,500.16,478.09,29.98,0000 0000 0000 0000 000000
2014-08-12 12:27:11,0.47,4.22,0.00,30.80,34.77,36.92,9.29,43.17,1003.92,2003.94,2021.34,2301.33,2419.87,500.33,478.15,30.03,0000 0000 0000 0000 000000
2014-08-12 12:32:12,0.53,4.24,0.00,30.81,34.79,36.95,9.16,43.08,1003.91,2003.74,2015.53,2297.98,2415.82,499.49,477.43,30.07,0000 0000 0000 0000 000000
2014-08-12 12:37:13,0.61,4.27,0.00,30.83,34.81,36.98,9.25,43.17,1003.90,2003.35,2008.43,2294.05,2411.04,500.08,477.94,30.11,0000 0000 0000 0000 000000
2014-08-12 12:42:14,0.67,4.30,0.00,30.86,34.83,37.00,9.30,43.18,1003.92,2003.08,2000.78,2289.83,2405.93,500.25,477.94,30.15,0000 0000 0000 0000 000000
2014-08-12 12:47:15,0.68,4.33,0.00,30.87,34.85,37.02,9.23,42.92,1003.92,2003.00,1993.25,2285.65,2400.83,500.51,478.14,30.19,0000 0000 0000 0000 000000
2014-08-12 12:52:16,0.69,4.35,0.00,30.89,34.87,37.03,9.18,43.02,1003.91,2003.00,1985.77,2281.48,2395.86,500.03,477.80,30.24,0000 0000 0000 0000 000000
2014-08-12 12:57:18,0.68,4.38,0.23,30.89,34.89,37.05,9.21,43.07,1003.92,2002.99,1978.44,2277.43,2390.96,499.76,477.52,30.28,0000 0000 0000 0000 000000
2014-08-12 13:02:19,0.67,4.41,1.00,30.90,34.91,37.07,9.22,42.83,1003.91,2002.98,1971.12,2273.45,2386.15,500.01,477.77,30.32,0000 0000 0000 0000 000000